sat.trackr.live / text

‹ back to catalog

STARLINK-5561

NORAD 56337 · 2023-058W

PAYLOAD ACTIVE UNKNOWN

§ Identity

Operator
Country
US
Launch date
2023-04-27
Launch site
AFWTR
Launch vehicle
Mass (kg)
RCS (m²)

Purposes: comms

External: N2YO · Heavens-Above · Gunter

§ Orbital elements

Epoch: 2026-09-20T22:00:03.000096Z

Period
94.74 min
Inclination
97.2849°
Eccentricity
0.0001606
Mean motion
15.19908257 rev/d
Perigee alt
505.0 km
Apogee alt
507.2 km
Semi-major
6,884.3 km
B*
3.1241e-2
RAAN
257.8048°
Arg perigee
85.1654°
Mean anomaly
67.4805°
Rev number
578

§ Raw data

STARLINK-55611 56337U 23058W   26263.91670139  .00720239  00000+0  31241-1 0  99912 56337  97.2849 257.8048 0001606  85.1654  67.4805 15.19908257  5788

JSON: /api/v1/satellites/56337 · /tle

For live sub-satellite position, see the globe view (requires WebGL).

§ Visibility from observer

Set your observer location to see the next 7 days of passes ≥ 10°. The values pass through the URL so the page stays shareable.

No JS? Fill the form by hand. The geolocation button needs JavaScript.